TimeEST,TemperatureF,Dew PointF,Humidity,Sea Level PressureIn,VisibilityMPH,Wind Direction,Wind SpeedMPH,Gust SpeedMPH,PrecipitationIn,Events,Conditions,WindDirDegrees,DateUTC
12:37 AM,51.8,51.8,100,30.04,2.5,SSW,4.6,-,0.03,Rain,Light Rain,200,2012-02-02 05:37:00
12:46 AM,51.8,51.8,100,30.04,4.0,SSW,4.6,-,0.04,Rain,Light Rain,200,2012-02-02 05:46:00
12:53 AM,52.0,51.1,97,30.02,4.0,SSW,3.5,-,0.04,Rain,Light Rain,210,2012-02-02 05:53:00
1:53 AM,52.0,51.1,97,30.00,6.0,SW,5.8,-,0.00,,Overcast,230,2012-02-02 06:53:00
2:04 AM,51.8,51.8,100,30.02,7.0,SSW,4.6,-,N/A,,Overcast,210,2012-02-02 07:04:00
2:53 AM,51.1,51.1,100,29.99,4.0,SW,6.9,-,N/A,,Mostly Cloudy,220,2012-02-02 07:53:00
3:25 AM,51.8,51.8,100,30.00,4.0,SW,6.9,-,N/A,,Mostly Cloudy,220,2012-02-02 08:25:00
3:41 AM,51.8,50.0,94,29.99,4.0,SSW,5.8,-,N/A,,Scattered Clouds,200,2012-02-02 08:41:00
3:53 AM,50.0,48.9,96,29.97,3.0,SW,8.1,-,N/A,,Partly Cloudy,220,2012-02-02 08:53:00
4:00 AM,50.0,50.0,100,29.99,2.0,SW,8.1,-,N/A,,Scattered Clouds,220,2012-02-02 09:00:00
4:19 AM,50.0,50.0,100,29.99,2.5,SW,6.9,-,N/A,,Mostly Cloudy,230,2012-02-02 09:19:00
4:26 AM,50.0,48.2,94,29.99,3.0,SW,6.9,-,N/A,,Mostly Cloudy,230,2012-02-02 09:26:00
4:53 AM,51.1,51.1,100,29.97,5.0,SW,9.2,-,N/A,,Overcast,230,2012-02-02 09:53:00
5:53 AM,51.1,50.0,96,29.97,6.0,WSW,9.2,-,N/A,,Overcast,250,2012-02-02 10:53:00
6:25 AM,51.8,50.0,94,29.99,4.0,WSW,5.8,-,0.00,Rain,Light Rain,250,2012-02-02 11:25:00
6:53 AM,51.1,50.0,96,29.99,5.0,WSW,8.1,-,0.00,,Overcast,250,2012-02-02 11:53:00
7:53 AM,51.1,50.0,96,30.02,4.0,WSW,6.9,-,N/A,,Overcast,250,2012-02-02 12:53:00
8:31 AM,51.8,50.0,94,30.04,5.0,WSW,8.1,-,N/A,,Mostly Cloudy,240,2012-02-02 13:31:00
8:53 AM,52.0,51.1,97,30.03,6.0,WSW,8.1,-,N/A,,Mostly Cloudy,250,2012-02-02 13:53:00
9:02 AM,53.6,51.8,94,30.05,6.0,WSW,6.9,-,N/A,,Scattered Clouds,250,2012-02-02 14:02:00
9:53 AM,57.9,50.0,75,30.04,10.0,West,6.9,-,N/A,,Partly Cloudy,280,2012-02-02 14:53:00
10:53 AM,62.1,48.0,60,30.06,10.0,WNW,10.4,16.1,N/A,,Clear,300,2012-02-02 15:53:00
11:53 AM,64.0,44.1,48,30.06,10.0,NW,15.0,20.7,N/A,,Overcast,320,2012-02-02 16:53:00
12:53 PM,64.9,44.1,47,30.05,10.0,North,10.4,-,N/A,,Partly Cloudy,350,2012-02-02 17:53:00
1:53 PM,66.0,42.1,42,30.04,10.0,North,12.7,19.6,N/A,,Scattered Clouds,350,2012-02-02 18:53:00
2:53 PM,64.9,33.1,31,30.06,10.0,NW,18.4,21.9,N/A,,Clear,320,2012-02-02 19:53:00
3:53 PM,64.0,30.0,28,30.08,10.0,WNW,10.4,19.6,N/A,,Clear,290,2012-02-02 20:53:00
4:53 PM,62.1,27.0,26,30.11,10.0,North,11.5,20.7,N/A,,Clear,350,2012-02-02 21:53:00
5:53 PM,57.0,28.0,33,30.16,10.0,North,9.2,-,N/A,,Clear,350,2012-02-02 22:53:00
6:53 PM,54.0,28.9,38,30.20,10.0,NNW,6.9,-,N/A,,Clear,330,2012-02-02 23:53:00
7:53 PM,51.1,28.9,43,30.23,10.0,NNW,5.8,-,N/A,,Clear,340,2012-02-03 00:53:00
8:53 PM,50.0,28.0,43,30.27,10.0,NNW,3.5,-,N/A,,Clear,330,2012-02-03 01:53:00
9:53 PM,50.0,27.0,41,30.28,10.0,Calm,Calm,-,N/A,,Clear,0,2012-02-03 02:53:00
10:53 PM,48.0,28.0,46,30.29,10.0,NW,5.8,-,N/A,,Clear,320,2012-02-03 03:53:00
11:53 PM,41.0,28.9,62,30.32,10.0,West,3.5,-,N/A,,Clear,270,2012-02-03 04:53:00